EW8552 Weather Reports


time (UTC)temp
C
wind
direction
speed
KPH
gust
KPH
rain 1hr
cm
rain 24hr
cm
rain mn
cm
humidity
%
barometer
mb
20260505100058 15 0.0 0.0 0.00 0.00 0.00 67 1011.5
20260505093058 15 0.0 1.6 0.00 0.00 0.00 66 1011.4
20260505090017 15 0.0 1.6 0.00 0.00 0.00 66 1011.3
20260505083017 15 0.0 0.0 0.00 0.00 0.00 66 1011.4
20260505080017 15 0.0 0.0 0.00 0.00 0.00 66 1011.2
20260505073037 15 0.0 0.0 0.00 0.00 0.00 65 1011.2
20260505070058 16 0.0 0.0 0.00 0.00 0.00 65 1011.1
20260505063017 16 0.0 1.6 0.00 0.00 0.00 63 1011.0
20260505060018 16 0.0 1.6 0.00 0.00 0.00 63 1011.0
20260505053017 16 0.0 0.0 0.00 0.00 0.00 62 1011.0
20260505040016 18 0.0 0.0 0.00 0.00 0.00 55 1011.0
20260505033017 18 0.0 1.6 0.00 0.00 0.00 54 1011.0
20260505030016 18 0.0 1.6 0.00 0.00 0.00 52 1010.9
20260505023037 19 0.0 1.6 0.00 0.00 0.00 51 1010.9
20260505020016 20 0.0 1.6 0.00 0.00 0.00 49 1010.7
20260505013016 20 0.0 1.6 0.00 0.00 0.00 46 1010.4
20260505010017 21 0.0 3.2 0.00 0.00 0.00 44 1010.1
20260505003037 21 0.0 3.2 0.00 0.00 0.00 42 1009.9
20260505000017 22 0.0 6.4 0.00 0.00 0.00 40 1009.9
20260504233016 22 0.0 4.8 0.00 0.00 0.00 39 1009.7
20260504230016 23 0.0 3.2 0.00 0.00 0.00 38 1009.6
20260504223016 23 248 1.6 9.7 0.00 0.00 0.00 36 1009.6
20260504220017 25 90 1.6 9.7 0.00 0.00 0.00 34 1009.5
20260504213016 25 90 1.6 8.0 0.00 0.00 0.00 32 1009.6
20260504210016 25 203 1.6 6.4 0.00 0.00 0.00 32 1009.6
20260504203016 25 113 1.6 6.4 0.00 0.00 0.00 31 1009.8
20260504200017 25 225 1.6 8.0 0.00 0.00 0.00 32 1010.3
20260504193037 24 90 1.6 4.8 0.00 0.00 0.00 33 1010.6
20260504190037 23 90 1.6 6.4 0.00 0.00 0.00 34 1011.2
20260504183036 23 248 1.6 8.0 0.00 0.00 0.00 33 1011.9
20260504180016 22 225 1.6 8.0 0.00 0.00 0.00 36 1012.1
20260504173016 22 225 1.6 8.0 0.00 0.00 0.00 34 1012.4